This is the latest recevied weather packets stored in our database for station/object KN6WGU. If no packets are shown the sender has not sent any weather packets the latest 10 day(s).
| Time | Temp. | Humidity | Pressure | Rain* | Wind** | Luminosity | Snow |
|---|---|---|---|---|---|---|---|
| 1788105208 | 23.33° C | 81% | 1014.5 hPa | 0 mm | - | 111 W/m² | - |
| 1788104908 | 23.33° C | 82% | 1014.6 hPa | 0 mm | - | 131 W/m² | - |
| 1788104603 | 23.33° C | 82% | 1014.4 hPa | 0 mm | - | 131 W/m² | - |
| 1788104300 | 22.78° C | 83% | 1014.4 hPa | 0 mm | - | 132 W/m² | - |
| 1788103995 | 22.78° C | 84% | 1014.3 hPa | 0 mm | - | 120 W/m² | - |
| 1788103694 | 22.78° C | 83% | 1014.5 hPa | 0 mm | - | 113 W/m² | - |
| 1788103389 | 22.78° C | 84% | 1014.2 hPa | 0 mm | - | 82 W/m² | - |
| 1788103088 | 22.78° C | 83% | 1014.3 hPa | 0 mm | - | 83 W/m² | - |
| 1788102788 | 22.78° C | 82% | 1014.2 hPa | 0 mm | - | 102 W/m² | - |
| 1788102483 | 22.78° C | 82% | 1014 hPa | 0 mm | - | 102 W/m² | - |
| 1788102182 | 22.78° C | 82% | 1014.1 hPa | 0 mm | - | 95 W/m² | - |
| 1788101877 | 22.78° C | 82% | 1014.1 hPa | 0 mm | - | 91 W/m² | - |
| 1788101573 | 22.78° C | 81% | 1013.9 hPa | 0 mm | - | 85 W/m² | - |
| 1788101268 | 22.78° C | 81% | 1013.9 hPa | 0 mm | - | 77 W/m² | - |
| 1788100963 | 22.78° C | 81% | 1013.9 hPa | 0 mm | - | 66 W/m² | - |
| 1788100659 | 22.78° C | 80% | 1013.7 hPa | 0 mm | - | 70 W/m² | - |
| 1788100357 | 22.22° C | 79% | 1013.8 hPa | 0 mm | - | 54 W/m² | - |
| 1788100052 | 22.22° C | 80% | 1013.7 hPa | 0 mm | - | 61 W/m² | - |
| 1788099748 | 22.22° C | 79% | 1013.5 hPa | 0 mm | - | 54 W/m² | - |
| 1788099443 | 22.22° C | 80% | 1013.8 hPa | 0 mm | - | 50 W/m² | - |
| 1788099138 | 22.22° C | 80% | 1013.8 hPa | 0 mm | - | 40 W/m² | - |
| 1788098833 | 22.22° C | 79% | 1013.7 hPa | 0 mm | - | 34 W/m² | - |
| 1788098523 | 22.22° C | 80% | 1013.4 hPa | 0 mm | - | 37 W/m² | - |
| 1788098218 | 21.67° C | 80% | 1013.6 hPa | 0 mm | - | 41 W/m² | - |
| 1788097912 | 21.67° C | 80% | 1013.3 hPa | 0 mm | - | 38 W/m² | - |
* Rain latest hour (hover to see other rain measurements)
** Current wind speed in m/s (hover to see current wind gust speed)